Regional Weather Roundup
Issued by NWS Green Bay, WI

Home | Current Version | Previous Version | Graphics & Text | Print | Product List | Glossary Off
Versions: 1 2 3 4 5 6 7 8 9 10 11 12 13 14 15 16 17 18 19 20 21 22 23 24 25 26 27 28 29 30 31 32 33 34 35 36 37 38 39 40 41 42 43 44 45 46 47 48 49 50

000
ASUS43 KGRB 040100
RWRGRB

NORTH-CENTRAL AND NORTHEAST WISCONSIN REGIONAL WEATHER ROUNDUP
NATIONAL WEATHER SERVICE GREEN BAY WI
800 PM CDT MON AUG 03 2015

WIZ005-009-010>012-018-019-040200-
NORTH CENTRAL WISCONSIN

CITY           SKY/WX    TMP DP  RH WIND       PRES   REMARKS
IRONWOOD       MOCLDY    59  57  94 NW6       29.84S
MANITOWISH WTR NOT AVBL
ARBOR VITAE    NOT AVBL
EAGLE RIVER    NOT AVBL
LAND O LAKES   NOT AVBL
RHINELANDER    PTCLDY    63  54  72 W6        29.88R
PHILLIPS       CLOUDY    65  55  72 CALM      29.87S
ANTIGO         NOT AVBL
TOMAHAWK       NOT AVBL
MERRILL        NOT AVBL
$$

WIZ013-073-040200-
NORTHEAST WISCONSIN

CITY           SKY/WX    TMP DP  RH WIND       PRES   REMARKS
IRON MOUNTAIN  PTCLDY    65  52  62 W5        29.82R
MARINETTE      CLEAR     68  50  52 CALM      29.81S
$$

WIZ017-030-035>037-045-040200-
CENTRAL WISCONSIN

CITY           SKY/WX    TMP DP  RH WIND       PRES   REMARKS
MEDFORD        NOT AVBL
WAUSAU         CLOUDY    70  53  54 NW8       29.86R
MOSINEE        MOCLDY    68  52  56 NW9       29.89R
MARSHFIELD     CLOUDY    69  52  54 NW6       29.89R
WISC RAPIDS    PTCLDY    71  51  49 N8        29.89R
STEVENS POINT  NOT AVBL
WAUPACA        NOT AVBL
SHAWANO        NOT AVBL
CLINTONVILLE   CLOUDY    70  54  56 NW8       29.85R
$$

WIZ038-039-048-051-040200-
FOX VALLEY

CITY           SKY/WX    TMP DP  RH WIND       PRES   REMARKS
NWS GREEN BAY  CLOUDY    69  56  62 NW8       29.84R
APPLETON       MOCLDY    70  48  46 NW17      29.86R
OSHKOSH        PTCLDY    72  54  53 NW6       29.84R
FOND DU LAC    PTCLDY    72  55  55 NW6       29.85R
$$

WIZ022-050-052-040200-
EAST CENTRAL WISCONSIN

CITY           SKY/WX    TMP DP  RH WIND       PRES   REMARKS
STURGEON BAY   MOCLDY    68  54  60 NW6       29.85R
MANITOWOC      NOT AVBL
SHEBOYGAN      PTCLDY    71  54  54 NW6       29.84R
$$

LMZ563-521-522-541>543-040200-
LAKESHORE

STATION/POSITION TIME  TEMP    WIND        PRES    VSBY  WAVE
                       AIR SEA DIR/SP/G                  HT/PER
                 (UTC) (F)     (DEG/KT/KT) (MB)    (MI)  (FT/S)
SHEBOYGAN LKSHOR 0000   76     300/  9/ 12 1009.8R
KEWAUNEE LKSHORE 0000   72     300/  5/ 10 1009.1R
ALGOMA MARINA    0012           CALM  /  3   N/A
TWO RIVERS CG    0010   74                 1009.7      6   1
NORTHPORT PIER   0000   71     290/  3/  5 1008.8S
N MID LAKE BUOY  2350   65 68  360/  6/  8 1008.7R         1/ 3
S GREEN BAY BUOY 0000   69 70  280/  8/ 10 1011.0R
STURGEON BAY CG  0005   71     350/  4     1025.6      6
CHAMBERS ISLAND  0000   71     320/  5/  9 1009.1R
MENOMINEE LKSHOR 0000   73     310/  8/ 13 1010.1R
$$


USA.gov is the U.S. government's official web portal to all federal, state and local government web resources and services.